Location: Ward Pound Ridge Reservation
(41.2500°N, 73.6000°W)
Time: 08:56:59
(UTC-04:00)

Envisat - Pass Details

Date: 15 October 2017
Orbit: 764 x 766 km, 98.2° (Epoch: 18 October)

Event Time Altitude Azimuth Distance (km) Brightness Sun altitude
Exits shadow 21:23:15 30° 304° (NW) 1,360 4.7 -36.0°
Drops below altitude 10° 21:26:15 10° 331° (NNW) 2,309 6.0 -36.5°
Sets 21:28:43 0° 339° (NNW) 3,239 6.8 -36.9°
